Location: Maddington
(51.2000°N, 1.9167°W)
Time: 01:11:43
(UTC+00:00)

Resurs 01 Rocket - Pass Details

Date: 18 September 2020
Orbit: 633 x 645 km, 98.0° (Epoch: 30 October)

Event Time Altitude Azimuth Distance (km) Brightness Sun altitude
Exits shadow 20:56:49 46° 215° (SW) 867 2.2 -24.5°
Maximum altitude 20:57:44 56° 259° (W) 773 2.1 -24.6°
Drops below altitude 10° 21:02:08 10° 338° (NNW) 2,054 5.0 -25.1°
Sets 21:04:24 0° 343° (NNW) 2,968 5.9 -25.4°
